Time,TemperatureF,DewpointF,PressureIn,WindDirection,WindDirectionDegrees,WindSpeedMPH,WindSpeedGustMPH,Humidity,HourlyPrecipIn,Conditions,Clouds,dailyrainin,SoftwareType,DateUTC
2013-01-28 00:16:00,19.3,13.0,30.48,ENE,76,0.0,2.0,76,0.00,,,0.00,weatherlink.com 1.10,2013-01-28 05:16:00,
2013-01-28 00:31:00,19.2,13.0,30.49,ENE,76,0.0,0.0,76,0.00,,,0.00,weatherlink.com 1.10,2013-01-28 05:31:00,
2013-01-28 00:46:00,19.7,14.0,30.48,ENE,76,0.0,0.0,79,0.00,,,0.00,weatherlink.com 1.10,2013-01-28 05:46:00,
2013-01-28 01:01:00,20.1,14.0,30.48,ENE,77,1.0,1.0,77,0.00,,,0.00,weatherlink.com 1.10,2013-01-28 06:01:00,
2013-01-28 01:16:00,19.7,14.0,30.47,ENE,77,1.0,2.0,79,0.00,,,0.00,weatherlink.com 1.10,2013-01-28 06:16:00,
2013-01-28 01:31:00,19.1,14.0,30.46,East,88,1.0,2.0,80,0.00,,,0.00,weatherlink.com 1.10,2013-01-28 06:31:00,
2013-01-28 01:46:00,19.0,14.0,30.44,East,87,0.0,2.0,80,0.00,,,0.00,weatherlink.com 1.10,2013-01-28 06:46:00,
2013-01-28 02:01:00,19.2,14.0,30.44,East,89,1.0,2.0,81,0.00,,,0.00,weatherlink.com 1.10,2013-01-28 07:01:00,
2013-01-28 02:16:00,19.9,15.0,30.44,East,84,2.0,3.0,80,0.00,,,0.00,weatherlink.com 1.10,2013-01-28 07:16:00,
2013-01-28 02:31:00,20.4,15.0,30.44,East,86,2.0,2.0,80,0.00,,,0.00,weatherlink.com 1.10,2013-01-28 07:31:00,
2013-01-28 02:46:00,20.4,15.0,30.43,East,81,0.0,2.0,79,0.00,,,0.00,weatherlink.com 1.10,2013-01-28 07:46:00,
2013-01-28 03:01:00,20.5,15.0,30.43,East,82,0.0,2.0,79,0.00,,,0.00,weatherlink.com 1.10,2013-01-28 08:01:00,
2013-01-28 03:16:00,20.7,15.0,30.43,East,82,0.0,0.0,80,0.00,,,0.00,weatherlink.com 1.10,2013-01-28 08:16:00,
2013-01-28 03:31:00,21.1,16.0,30.43,East,82,0.0,0.0,82,0.00,,,0.00,weatherlink.com 1.10,2013-01-28 08:31:00,
2013-01-28 03:46:00,21.3,17.0,30.42,East,82,0.0,0.0,83,0.00,,,0.00,weatherlink.com 1.10,2013-01-28 08:46:00,
2013-01-28 04:01:00,21.3,16.0,30.42,East,82,0.0,0.0,81,0.00,,,0.00,weatherlink.com 1.10,2013-01-28 09:01:00,
2013-01-28 04:16:00,21.4,16.0,30.41,East,82,0.0,0.0,80,0.00,,,0.00,weatherlink.com 1.10,2013-01-28 09:16:00,
2013-01-28 04:31:00,21.5,16.0,30.41,East,82,0.0,0.0,80,0.00,,,0.00,weatherlink.com 1.10,2013-01-28 09:31:00,
2013-01-28 04:46:00,21.9,17.0,30.39,ENE,73,1.0,2.0,81,0.00,,,0.00,weatherlink.com 1.10,2013-01-28 09:46:00,
2013-01-28 05:01:00,22.2,17.0,30.39,ENE,73,0.0,0.0,80,0.00,,,0.00,weatherlink.com 1.10,2013-01-28 10:01:00,
2013-01-28 05:16:00,22.6,17.0,30.38,ENE,73,0.0,1.0,79,0.00,,,0.00,weatherlink.com 1.10,2013-01-28 10:16:00,
2013-01-28 05:31:00,23.0,17.0,30.38,ENE,73,0.0,1.0,79,0.00,,,0.00,weatherlink.com 1.10,2013-01-28 10:31:00,
2013-01-28 05:46:00,23.4,18.0,30.38,ENE,73,0.0,0.0,80,0.00,,,0.00,weatherlink.com 1.10,2013-01-28 10:46:00,
2013-01-28 06:01:00,24.0,17.0,30.37,ENE,66,1.0,2.0,75,0.00,,,0.00,weatherlink.com 1.10,2013-01-28 11:01:00,
2013-01-28 06:16:00,24.5,19.0,30.38,ENE,65,0.0,1.0,78,0.00,,,0.00,weatherlink.com 1.10,2013-01-28 11:16:00,
2013-01-28 06:31:00,24.3,18.0,30.38,ENE,65,0.0,1.0,78,0.00,,,0.00,weatherlink.com 1.10,2013-01-28 11:31:00,
2013-01-28 06:46:00,24.0,18.0,30.38,ENE,65,0.0,0.0,78,0.00,,,0.00,weatherlink.com 1.10,2013-01-28 11:46:00,
2013-01-28 07:01:00,24.0,18.0,30.37,ENE,65,0.0,0.0,78,0.00,,,0.00,weatherlink.com 1.10,2013-01-28 12:01:00,
2013-01-28 07:16:00,24.2,19.0,30.36,ENE,65,0.0,2.0,81,0.00,,,0.00,weatherlink.com 1.10,2013-01-28 12:16:00,
2013-01-28 07:31:00,24.4,19.0,30.37,ENE,65,0.0,1.0,80,0.00,,,0.00,weatherlink.com 1.10,2013-01-28 12:31:00,
2013-01-28 07:46:00,24.8,20.0,30.37,South,184,0.0,1.0,82,0.00,,,0.00,weatherlink.com 1.10,2013-01-28 12:46:00,
2013-01-28 08:01:00,24.9,20.0,30.37,South,184,0.0,0.0,83,0.00,,,0.00,weatherlink.com 1.10,2013-01-28 13:01:00,
2013-01-28 08:16:00,25.0,21.0,30.37,South,184,0.0,1.0,85,0.00,,,0.00,weatherlink.com 1.10,2013-01-28 13:16:00,
2013-01-28 08:31:00,25.3,22.0,30.37,South,184,0.0,0.0,87,0.00,,,0.00,weatherlink.com 1.10,2013-01-28 13:31:00,
2013-01-28 08:46:00,25.3,22.0,30.36,East,94,0.0,2.0,88,0.00,,,0.00,weatherlink.com 1.10,2013-01-28 13:46:00,
2013-01-28 09:01:00,25.8,23.0,30.34,East,86,1.0,5.0,90,0.00,,,0.00,weatherlink.com 1.10,2013-01-28 14:01:00,
2013-01-28 09:16:00,26.1,24.0,30.33,East,91,2.0,6.0,90,0.00,,,0.00,weatherlink.com 1.10,2013-01-28 14:16:00,
2013-01-28 09:31:00,26.4,24.0,30.32,ESE,105,2.0,5.0,91,0.00,,,0.00,weatherlink.com 1.10,2013-01-28 14:31:00,
2013-01-28 09:46:00,26.9,25.0,30.31,ESE,119,0.0,5.0,91,0.00,,,0.00,weatherlink.com 1.10,2013-01-28 14:46:00,
2013-01-28 10:02:00,27.3,25.0,30.32,SE,144,0.0,3.0,91,0.00,,,0.00,weatherlink.com 1.10,2013-01-28 15:02:00,
2013-01-28 10:17:00,27.8,26.0,30.32,South,183,1.0,7.0,91,0.00,,,0.00,weatherlink.com 1.10,2013-01-28 15:17:00,
2013-01-28 10:32:00,28.5,26.0,30.31,SE,134,0.0,5.0,91,0.00,,,0.00,weatherlink.com 1.10,2013-01-28 15:32:00,
2013-01-28 10:47:00,29.2,27.0,30.30,South,188,3.0,14.0,90,0.00,,,0.00,weatherlink.com 1.10,2013-01-28 15:47:00,
2013-01-28 11:02:00,29.4,27.0,30.29,South,187,3.0,6.0,90,0.00,,,0.00,weatherlink.com 1.10,2013-01-28 16:02:00,
2013-01-28 11:17:00,29.8,27.0,30.27,SE,145,3.0,11.0,90,0.00,,,0.00,weatherlink.com 1.10,2013-01-28 16:17:00,
2013-01-28 11:32:00,30.1,28.0,30.25,SSW,213,6.0,11.0,90,0.00,,,0.00,weatherlink.com 1.10,2013-01-28 16:32:00,
2013-01-28 11:47:00,30.1,28.0,30.24,WSW,237,2.0,6.0,90,0.00,,,0.00,weatherlink.com 1.10,2013-01-28 16:47:00,
2013-01-28 12:02:00,30.5,28.0,30.22,SSE,167,1.0,7.0,91,0.00,,,0.00,weatherlink.com 1.10,2013-01-28 17:02:00,
2013-01-28 12:17:00,30.6,28.0,30.21,SSW,203,3.0,8.0,91,0.00,,,0.00,weatherlink.com 1.10,2013-01-28 17:17:00,
2013-01-28 12:32:00,30.8,29.0,30.19,SSW,209,0.0,8.0,91,0.00,,,0.00,weatherlink.com 1.10,2013-01-28 17:32:00,
2013-01-28 12:47:00,30.8,29.0,30.19,SSE,158,2.0,9.0,91,0.00,,,0.00,weatherlink.com 1.10,2013-01-28 17:47:00,
2013-01-28 13:02:00,30.9,29.0,30.17,SSW,194,1.0,6.0,91,0.00,,,0.00,weatherlink.com 1.10,2013-01-28 18:02:00,
2013-01-28 13:17:00,31.0,29.0,30.16,SSW,200,0.0,9.0,91,0.00,,,0.00,weatherlink.com 1.10,2013-01-28 18:17:00,
2013-01-28 13:32:00,31.2,29.0,30.15,SSW,206,0.0,6.0,92,0.00,,,0.00,weatherlink.com 1.10,2013-01-28 18:32:00,
2013-01-28 13:47:00,31.4,29.0,30.14,SW,221,3.0,7.0,92,0.00,,,0.00,weatherlink.com 1.10,2013-01-28 18:47:00,
2013-01-28 14:02:00,31.5,30.0,30.12,SSW,200,2.0,6.0,92,0.00,,,0.00,weatherlink.com 1.10,2013-01-28 19:02:00,
2013-01-28 14:17:00,31.6,30.0,30.11,South,176,4.0,6.0,92,0.00,,,0.00,weatherlink.com 1.10,2013-01-28 19:17:00,
2013-01-28 14:32:00,31.8,30.0,30.11,SW,220,3.0,5.0,92,0.00,,,0.00,weatherlink.com 1.10,2013-01-28 19:32:00,
2013-01-28 14:47:00,32.0,30.0,30.11,SW,229,3.0,4.0,92,0.00,,,0.00,weatherlink.com 1.10,2013-01-28 19:47:00,
2013-01-28 15:02:00,32.1,30.0,30.11,WSW,238,2.0,5.0,92,0.00,,,0.00,weatherlink.com 1.10,2013-01-28 20:02:00,
2013-01-28 15:17:00,32.2,30.0,30.09,South,183,2.0,5.0,92,0.00,,,0.00,weatherlink.com 1.10,2013-01-28 20:17:00,
2013-01-28 15:32:00,32.3,30.0,30.09,SW,233,2.0,4.0,92,0.00,,,0.00,weatherlink.com 1.10,2013-01-28 20:32:00,
2013-01-28 15:47:00,32.3,30.0,30.09,WSW,241,1.0,3.0,92,0.00,,,0.00,weatherlink.com 1.10,2013-01-28 20:47:00,
2013-01-28 16:02:00,32.3,30.0,30.08,WSW,250,0.0,2.0,92,0.00,,,0.00,weatherlink.com 1.10,2013-01-28 21:02:00,
2013-01-28 16:17:00,32.2,30.0,30.08,WSW,256,0.0,3.0,92,0.00,,,0.00,weatherlink.com 1.10,2013-01-28 21:17:00,
2013-01-28 16:32:00,32.1,30.0,30.07,WSW,253,2.0,4.0,93,0.00,,,0.00,weatherlink.com 1.10,2013-01-28 21:32:00,
2013-01-28 16:47:00,32.1,30.0,30.07,WSW,252,1.0,5.0,93,0.00,,,0.00,weatherlink.com 1.10,2013-01-28 21:47:00,
2013-01-28 17:03:00,32.0,30.0,30.06,WSW,247,0.0,3.0,93,0.00,,,0.00,weatherlink.com 1.10,2013-01-28 22:03:00,
2013-01-28 17:18:00,32.0,30.0,30.05,WSW,244,2.0,5.0,93,0.00,,,0.00,weatherlink.com 1.10,2013-01-28 22:18:00,
2013-01-28 17:33:00,32.1,30.0,30.05,WSW,250,1.0,5.0,93,0.00,,,0.00,weatherlink.com 1.10,2013-01-28 22:33:00,
2013-01-28 17:48:00,32.1,30.0,30.05,West,269,1.0,4.0,93,0.00,,,0.00,weatherlink.com 1.10,2013-01-28 22:48:00,
2013-01-28 18:03:00,32.0,31.0,30.05,West,260,3.0,4.0,94,0.00,,,0.00,weatherlink.com 1.10,2013-01-28 23:03:00,
2013-01-28 18:18:00,32.0,31.0,30.06,WSW,252,1.0,5.0,94,0.00,,,0.00,weatherlink.com 1.10,2013-01-28 23:18:00,
2013-01-28 18:33:00,32.0,31.0,30.05,WSW,252,3.0,5.0,94,0.00,,,0.00,weatherlink.com 1.10,2013-01-28 23:33:00,
2013-01-28 18:48:00,32.1,31.0,30.06,WSW,252,1.0,4.0,94,0.00,,,0.00,weatherlink.com 1.10,2013-01-28 23:48:00,
2013-01-28 19:03:00,32.1,31.0,30.05,WSW,248,0.0,4.0,94,0.00,,,0.00,weatherlink.com 1.10,2013-01-29 00:03:00,
2013-01-28 19:18:00,32.1,31.0,30.05,WSW,246,1.0,3.0,94,0.00,,,0.00,weatherlink.com 1.10,2013-01-29 00:18:00,
2013-01-28 19:33:00,32.1,31.0,30.04,WSW,254,1.0,4.0,94,0.00,,,0.00,weatherlink.com 1.10,2013-01-29 00:33:00,
2013-01-28 19:48:00,32.1,31.0,30.04,WSW,256,4.0,7.0,94,0.00,,,0.00,weatherlink.com 1.10,2013-01-29 00:48:00,
2013-01-28 20:03:00,32.2,31.0,30.03,WSW,248,2.0,6.0,94,0.00,,,0.00,weatherlink.com 1.10,2013-01-29 01:03:00,
2013-01-28 20:18:00,32.2,31.0,30.03,WNW,282,1.0,5.0,94,0.00,,,0.00,weatherlink.com 1.10,2013-01-29 01:18:00,
2013-01-28 20:33:00,32.3,31.0,30.02,West,266,4.0,5.0,94,0.00,,,0.00,weatherlink.com 1.10,2013-01-29 01:33:00,
2013-01-28 20:48:00,32.3,31.0,30.02,WSW,250,5.0,5.0,94,0.00,,,0.00,weatherlink.com 1.10,2013-01-29 01:48:00,
2013-01-28 21:03:00,32.4,31.0,30.02,West,279,3.0,7.0,95,0.00,,,0.00,weatherlink.com 1.10,2013-01-29 02:03:00,
2013-01-28 21:18:00,32.4,31.0,30.01,West,275,1.0,6.0,95,0.00,,,0.00,weatherlink.com 1.10,2013-01-29 02:18:00,
2013-01-28 21:33:00,32.4,31.0,30.01,WSW,257,2.0,5.0,95,0.00,,,0.00,weatherlink.com 1.10,2013-01-29 02:33:00,
2013-01-28 21:48:00,32.5,31.0,30.01,West,261,3.0,8.0,95,0.00,,,0.00,weatherlink.com 1.10,2013-01-29 02:48:00,
2013-01-28 22:03:00,32.5,31.0,30.01,WSW,247,2.0,6.0,95,0.00,,,0.00,weatherlink.com 1.10,2013-01-29 03:03:00,
2013-01-28 22:18:00,32.5,31.0,30.01,WNW,285,3.0,6.0,95,0.00,,,0.00,weatherlink.com 1.10,2013-01-29 03:18:00,
2013-01-28 22:33:00,32.5,31.0,30.01,West,262,4.0,7.0,95,0.00,,,0.00,weatherlink.com 1.10,2013-01-29 03:33:00,
2013-01-28 22:48:00,32.6,31.0,30.00,WSW,246,3.0,5.0,95,0.00,,,0.00,weatherlink.com 1.10,2013-01-29 03:48:00,
2013-01-28 23:03:00,32.7,32.0,30.01,West,260,2.0,6.0,95,0.00,,,0.00,weatherlink.com 1.10,2013-01-29 04:03:00,
2013-01-28 23:18:00,32.8,32.0,30.01,West,273,1.0,7.0,95,0.00,,,0.00,weatherlink.com 1.10,2013-01-29 04:18:00,
2013-01-28 23:33:00,32.9,32.0,30.01,West,273,2.0,4.0,95,0.00,,,0.00,weatherlink.com 1.10,2013-01-29 04:33:00,
2013-01-28 23:48:00,32.9,32.0,30.02,West,263,2.0,5.0,95,0.00,,,0.00,weatherlink.com 1.10,2013-01-29 04:48:00,